SCP
0 0 0 0 0 0 0 0 0 0 0 0 0 0 0 0 0 0 0 0 0 0 0 0 0 0 0 0 0 0 0 0 0 0 0 0 0 0
0 0 0 0 0 0 0 0 0 0 0 0 0 0 0 0 0 0 0 0 0 0 0 0 0 0 0 0 0 0 0 -0 -0 0 -0 0 0 0
0 0 0 0 0 0 0 0 0 0 0 0 0 0 0 0 0 0 0 0 0 0 0 0 0 0 0 0 0 0 0 0 0 0 -0 0 0 -0
0 0 0 0 0 0 0 0 0 0 0 0 0 0 0 0 0 0 0 0 0 0 0 0 0 0 0 0 0 0 0 0 0 0 0 0 0 0
0 0 0 0 0 0 0 0 0 0 0 0 0 0 0 0 0 0 0 0 0 0 0 0 0 0 0 0 0 0 0 0 0 0 0 0 0 0
0 0 0 0 -0 -0 0 0 0 0 0 0 0 0 0 0 0 0 0 0 0 0 0 0 0 0 0 0 0 0 0 0 0 0 0 0 0 0
0 0 0 0 0 0 -0 0 0 0 0 0 0 0 0 0 0 0 0 0 0 0 0 0 0 0 0 0 0 0 0 0 0 0 0 0 0 0
0 0 0 0 0 -0 0 0 0 0 0 0 0 0 0 0 0 0 0 0 0 0 0 0 0 0 0 0 0 0 0 0 0 0 0 0 0 0
-0 0 0 0 0 0 0 0 0 0 0 0 0 0 0 0 0 0 0 0 0 0 0 0 0 0 0 0 0 0 0 0 0 0 0 0 0 0
-0 -0 -0 -0 0 0 0 0 0 0 0 0 0 0 0 0 0 0 0 0 0 0 0 0 0 0 0 0 0 0 0 0 0 0 0 0 0 0
-0 -0 -0 -0 -0 0 0 0 0 0 0 0 0 0 0 0 0 0 0 0 0 0 0 0 0 0 0 0 0 0 0 0 0 0 0 0 0 0
-0 -0 -0 -0 -0 -0 0 0 0 0 0 0 0 0 0 0 0 0 0 0 0 0 0 0 0 0 0 0 0 0 0 0 0 0 0 0 0 0
0 0 0 -0 -0 -0 0 0 0 0 0 0 0 0 0 0 0 0 0 0 0 0 0 0 0 0 0 0 0 0 0 0 0 0 0 0 0 0
0 0 0 0 -0 0 0 0 0 0 0 0 0 0 0 0 0 0 0 0 0 0 0 0 0 0 0 0 0 0 0 0 0 0 0 0 0 0
0 0 0 0 0 0 0 0 0 0 0 0 0 0 0 0 0 0 0 0 0 0 0 0 0 0 0 0 0 0 0 0 0 0 0 0 0 0
0 0 0 0 0 0 0 0 0 0 0 0 0 0 0 0 0 0 0 0 0 0 0 0 0 0 0 0 0 0 0 0 0 0 0 0 0 0
0 0 0 0 0 0 0 0 0 0 0 0 0 0 0 0 0 0 0 0 0 0 0 0 0 0 0 0 0 0 0 0 0 0 0 0 0 0
0 0 0 0 0 0 0 0 0 0 0 0 0 0 0 0 0 0 0 0 0 0 0 0 0 0 0 0 0 0 0 0 0 0 0 0 0 0
0 0 0 0 0 0 0 0 0 0 0 0 0 0 0 0 0 0 0 0 0 0 0 0 0 0 0 0 0 0 0 0 0 0 0 0 0 0
0 0 0 0 0 0 0 0 0 0 0 0 0 0 0 0 0 0 0 0 0 0 0 0 0 0 0 0 0 0 0 0 0 0 0 0 0 0
-0 0 -0 0 0 0 0 0 0 0 0 0 0 0 0 0 0 0 0 0 0 0 0 0 0 0 0 0 0 0 0 0 0 0 0 0 0 0
-0 0 0 0 0 0 0 0 0 0 0 0 0 0 0 0 0 0 0 0 0 0 0 0 0 0 0 0 0 0 0 0 0 0 0 0 0 0
-0 0 0 0 0 0 0 0 0 0 0 0 0 0 0 0 0 0 0 0 0 0 0 0 0 0 0 0 0 0 0 0 0 0 0 0 0 -0
Wind_Speed_500mb
14 12 12 13 13 13 13 11 9 9 19 17 11 14 13 13 13 12 12 16 19 19 20 20 21 22 26 27 25 19 16 23 31 34 33 35 45 40
18 14 13 15 12 12 12 13 11 14 13 14 12 9 8 7 8 9 12 16 18 21 20 19 19 15 14 18 19 23 25 24 21 20 26 32 39 44
15 17 16 15 16 16 15 14 9 9 9 11 11 10 9 7 10 15 19 23 24 25 25 24 22 18 17 16 16 18 18 17 19 24 26 27 33 38
21 16 18 19 17 16 14 13 11 8 6 6 8 6 13 18 18 20 25 25 26 29 27 25 25 25 25 25 27 23 22 21 20 24 22 25 30 33
22 23 23 23 25 26 20 13 17 15 12 6 7 7 13 19 22 27 29 26 22 24 27 30 30 30 31 31 28 28 29 26 28 30 35 32 32 35
20 21 24 26 28 30 27 28 22 13 13 10 9 12 16 20 22 24 27 26 20 20 22 26 26 26 29 30 33 38 37 36 39 39 36 36 36 35
21 22 23 23 22 24 26 28 31 35 34 26 22 26 27 29 35 34 30 36 36 38 33 24 18 23 24 26 28 27 29 31 33 33 35 37 40 40
28 23 19 20 21 19 21 24 26 28 31 33 26 25 27 29 31 35 35 44 45 45 36 28 28 28 28 24 22 24 28 29 27 26 30 33 35 38
36 37 31 28 24 23 25 24 26 25 27 30 32 31 29 29 30 34 33 35 36 36 36 29 37 29 24 20 17 16 20 24 26 30 29 29 29 35
31 32 35 34 29 20 16 17 23 24 24 30 30 30 30 31 28 33 33 31 28 33 37 36 37 32 15 14 28 22 24 23 22 24 25 28 32 33
22 24 29 29 27 27 25 18 21 18 22 22 26 26 26 25 30 32 31 29 35 32 36 41 34 43 26 23 32 30 22 25 28 32 35 36 31 35
16 18 20 24 22 24 25 17 19 20 17 16 19 24 24 25 28 32 37 32 32 33 33 41 36 38 27 31 35 43 38 27 29 27 24 24 25 28
10 13 14 21 14 21 19 16 17 21 22 21 23 23 20 21 26 28 33 31 24 27 31 39 34 31 29 45 47 43 45 27 22 20 21 22 22 26
10 10 9 15 12 17 18 17 18 27 22 24 21 29 24 23 28 31 36 32 27 26 30 31 35 27 33 38 46 46 39 26 27 24 17 20 23 20
11 5 8 5 9 12 14 16 19 25 22 24 20 26 29 24 23 28 37 33 24 29 31 32 26 23 25 30 32 44 42 28 30 24 24 26 24 25
1 1 2 5 6 9 14 20 20 20 22 22 19 21 23 24 25 27 39 46 33 34 38 34 30 17 19 26 28 37 37 27 30 28 23 25 20 23
5 2 5 3 6 10 12 16 17 17 19 22 22 19 26 26 22 25 31 38 42 46 50 42 29 25 18 17 22 26 35 29 30 30 30 25 23 21
2 4 6 2 8 8 13 16 16 17 18 20 22 21 25 26 23 25 28 32 37 42 46 45 41 34 33 30 29 32 32 34 30 33 26 31 19 21
2 1 6 5 4 9 16 18 19 17 17 19 18 21 24 26 25 26 28 28 33 37 36 39 39 42 44 46 38 39 37 34 33 30 29 28 26 24
10 12 4 4 8 15 23 18 16 17 25 23 12 15 21 28 30 24 25 32 33 29 36 34 31 34 38 40 43 37 36 37 37 35 33 29 30 23
11 8 6 10 14 17 24 17 16 16 16 15 8 10 17 23 29 23 23 27 35 31 31 34 34 31 28 33 41 45 34 30 35 39 36 34 34 24
6 14 18 14 14 22 19 17 18 16 16 15 4 7 12 18 22 25 28 33 36 37 41 37 30 40 22 26 35 41 43 33 29 39 32 26 31 27
7 11 10 14 22 25 18 20 22 20 12 10 2 9 14 19 23 21 20 23 28 35 44 43 33 33 30 26 32 39 38 35 44 52 24 25 24 27
Wind_Direction_500mb
50 38 37 48 45 48 49 55 90 114 73 62 64 55 52 56 57 45 32 22 20 17 16 16 16 15 15 9 6 338 303 289 283 274 256 246 242 245
34 23 35 43 33 38 38 41 64 98 106 83 67 77 56 45 19 16 2 349 344 334 330 336 338 338 351 350 354 354 354 356 1 329 310 320 303 281
8 359 6 25 25 27 27 42 64 75 100 82 70 52 21 7 346 343 341 340 340 339 334 328 324 317 302 302 305 317 316 320 322 333 329 324 323 323
38 24 36 18 11 20 13 11 13 24 45 132 96 16 349 335 337 327 321 315 311 305 302 302 303 304 304 307 308 301 309 302 292 297 301 300 310 306
51 48 48 36 43 45 49 65 70 81 80 90 62 4 331 310 313 323 328 323 315 314 313 302 293 290 287 287 284 287 291 295 294 289 293 290 294 299
55 56 55 49 49 46 50 62 61 59 53 37 31 21 18 21 26 26 23 16 359 346 338 322 322 315 309 303 289 282 281 281 282 286 285 284 286 294
56 56 57 53 46 44 49 64 65 59 52 48 52 46 43 32 27 21 19 19 21 14 9 348 337 323 306 293 293 293 288 286 287 287 283 278 279 285
55 51 42 38 38 39 42 52 48 42 36 33 33 32 27 25 23 20 15 12 12 6 11 19 11 359 342 327 311 291 288 283 286 294 289 283 280 285
56 54 48 47 54 57 61 55 44 34 25 34 32 25 15 6 5 4 1 3 3 358 2 24 20 15 16 19 4 334 320 315 298 286 286 292 295 289
49 51 51 50 48 39 47 51 46 25 23 20 19 11 7 11 6 355 3 2 6 8 7 1 10 22 27 27 347 323 313 307 299 295 294 295 296 302
48 44 44 34 27 25 24 35 34 23 11 10 359 8 10 3 0 7 0 359 3 7 3 358 353 351 21 355 2 357 322 298 295 285 280 288 297 305
6 8 35 18 11 10 3 35 30 20 9 357 346 354 2 6 3 6 6 3 2 354 350 346 351 353 347 2 3 350 336 303 307 306 311 296 287 299
311 333 20 4 20 18 43 33 18 6 0 353 354 356 358 7 8 3 0 356 350 347 339 336 345 346 345 345 350 1 354 339 306 311 315 321 300 295
320 325 358 356 16 24 19 26 8 3 4 3 6 12 15 12 13 14 6 0 350 340 337 340 344 343 349 346 353 356 0 354 348 340 320 312 310 296
315 5 0 29 11 4 12 11 352 352 1 7 15 16 14 17 14 20 20 16 14 7 354 343 332 327 332 336 344 349 346 1 358 348 335 341 350 342
204 329 290 319 357 351 357 0 358 355 0 5 17 17 17 14 10 15 21 21 27 21 14 352 354 333 334 349 352 356 3 356 350 349 340 333 327 327
141 197 330 292 318 337 345 352 355 347 355 4 5 1 10 14 19 18 17 17 19 19 19 29 32 26 356 353 0 358 355 2 359 350 342 344 329 328
188 271 290 11 3 355 352 346 342 348 350 349 356 3 8 9 14 11 8 13 14 16 19 20 23 27 27 26 12 9 11 8 6 4 353 356 352 346
244 301 137 338 329 343 336 326 326 325 337 341 355 1 6 9 8 3 3 8 10 10 10 15 19 21 19 17 21 6 2 5 6 8 0 352 337 330
228 184 349 312 297 305 330 345 314 305 313 322 318 351 1 8 4 5 16 8 359 355 3 1 359 1 4 358 356 10 358 356 355 355 353 355 351 340
176 183 278 254 287 323 335 341 338 336 344 344 328 349 352 3 14 22 16 7 9 4 0 2 2 350 351 355 356 351 351 349 347 344 341 341 352 354
230 264 271 268 306 335 336 325 331 324 329 340 349 347 355 4 359 2 13 19 18 11 6 358 0 356 351 358 355 1 5 5 355 347 341 327 325 325
324 341 330 322 327 333 334 324 323 325 315 325 271 327 335 346 350 356 358 5 10 2 360 357 3 359 3 350 355 0 4 4 2 6 13 359 337 326
Wind_Speed_850mb
14 12 12 13 13 13 13 11 9 9 19 17 11 14 13 13 13 12 12 16 19 19 20 20 21 22 26 27 25 19 16 23 31 34 33 35 45 40
18 14 13 15 12 12 12 13 11 14 13 14 12 9 8 7 8 9 12 16 18 21 20 19 19 15 14 18 19 23 25 24 21 20 26 32 39 44
15 17 16 15 16 16 15 14 9 9 9 11 11 10 9 7 10 15 19 23 24 25 25 24 22 18 17 16 16 18 18 17 19 24 26 27 33 38
21 16 18 19 17 16 14 13 11 8 6 6 8 6 13 18 18 20 25 25 26 29 27 25 25 25 25 25 27 23 22 21 20 24 22 25 30 33
22 23 23 23 25 26 20 13 17 15 12 6 7 7 13 19 22 27 29 26 22 24 27 30 30 30 31 31 28 28 29 26 28 30 35 32 32 35
20 21 24 26 28 30 27 28 22 13 13 10 9 12 16 20 22 24 27 26 20 20 22 26 26 26 29 30 33 38 37 36 39 39 36 36 36 35
21 22 23 23 22 24 26 28 31 35 34 26 22 26 27 29 35 34 30 36 36 38 33 24 18 23 24 26 28 27 29 31 33 33 35 37 40 40
28 23 19 20 21 19 21 24 26 28 31 33 26 25 27 29 31 35 35 44 45 45 36 28 28 28 28 24 22 24 28 29 27 26 30 33 35 38
36 37 31 28 24 23 25 24 26 25 27 30 32 31 29 29 30 34 33 35 36 36 36 29 37 29 24 20 17 16 20 24 26 30 29 29 29 35
31 32 35 34 29 20 16 17 23 24 24 30 30 30 30 31 28 33 33 31 28 33 37 36 37 32 15 14 28 22 24 23 22 24 25 28 32 33
22 24 29 29 27 27 25 18 21 18 22 22 26 26 26 25 30 32 31 29 35 32 36 41 34 43 26 23 32 30 22 25 28 32 35 36 31 35
16 18 20 24 22 24 25 17 19 20 17 16 19 24 24 25 28 32 37 32 32 33 33 41 36 38 27 31 35 43 38 27 29 27 24 24 25 28
10 13 14 21 14 21 19 16 17 21 22 21 23 23 20 21 26 28 33 31 24 27 31 39 34 31 29 45 47 43 45 27 22 20 21 22 22 26
10 10 9 15 12 17 18 17 18 27 22 24 21 29 24 23 28 31 36 32 27 26 30 31 35 27 33 38 46 46 39 26 27 24 17 20 23 20
11 5 8 5 9 12 14 16 19 25 22 24 20 26 29 24 23 28 37 33 24 29 31 32 26 23 25 30 32 44 42 28 30 24 24 26 24 25
1 1 2 5 6 9 14 20 20 20 22 22 19 21 23 24 25 27 39 46 33 34 38 34 30 17 19 26 28 37 37 27 30 28 23 25 20 23
5 2 5 3 6 10 12 16 17 17 19 22 22 19 26 26 22 25 31 38 42 46 50 42 29 25 18 17 22 26 35 29 30 30 30 25 23 21
2 4 6 2 8 8 13 16 16 17 18 20 22 21 25 26 23 25 28 32 37 42 46 45 41 34 33 30 29 32 32 34 30 33 26 31 19 21
2 1 6 5 4 9 16 18 19 17 17 19 18 21 24 26 25 26 28 28 33 37 36 39 39 42 44 46 38 39 37 34 33 30 29 28 26 24
10 12 4 4 8 15 23 18 16 17 25 23 12 15 21 28 30 24 25 32 33 29 36 34 31 34 38 40 43 37 36 37 37 35 33 29 30 23
11 8 6 10 14 17 24 17 16 16 16 15 8 10 17 23 29 23 23 27 35 31 31 34 34 31 28 33 41 45 34 30 35 39 36 34 34 24
6 14 18 14 14 22 19 17 18 16 16 15 4 7 12 18 22 25 28 33 36 37 41 37 30 40 22 26 35 41 43 33 29 39 32 26 31 27
7 11 10 14 22 25 18 20 22 20 12 10 2 9 14 19 23 21 20 23 28 35 44 43 33 33 30 26 32 39 38 35 44 52 24 25 24 27
Wind_Direction_850mb
50 38 37 48 45 48 49 55 90 114 73 62 64 55 52 56 57 45 32 22 20 17 16 16 16 15 15 9 6 338 303 289 283 274 256 246 242 245
34 23 35 43 33 38 38 41 64 98 106 83 67 77 56 45 19 16 2 349 344 334 330 336 338 338 351 350 354 354 354 356 1 329 310 320 303 281
8 359 6 25 25 27 27 42 64 75 100 82 70 52 21 7 346 343 341 340 340 339 334 328 324 317 302 302 305 317 316 320 322 333 329 324 323 323
38 24 36 18 11 20 13 11 13 24 45 132 96 16 349 335 337 327 321 315 311 305 302 302 303 304 304 307 308 301 309 302 292 297 301 300 310 306
51 48 48 36 43 45 49 65 70 81 80 90 62 4 331 310 313 323 328 323 315 314 313 302 293 290 287 287 284 287 291 295 294 289 293 290 294 299
55 56 55 49 49 46 50 62 61 59 53 37 31 21 18 21 26 26 23 16 359 346 338 322 322 315 309 303 289 282 281 281 282 286 285 284 286 294
56 56 57 53 46 44 49 64 65 59 52 48 52 46 43 32 27 21 19 19 21 14 9 348 337 323 306 293 293 293 288 286 287 287 283 278 279 285
55 51 42 38 38 39 42 52 48 42 36 33 33 32 27 25 23 20 15 12 12 6 11 19 11 359 342 327 311 291 288 283 286 294 289 283 280 285
56 54 48 47 54 57 61 55 44 34 25 34 32 25 15 6 5 4 1 3 3 358 2 24 20 15 16 19 4 334 320 315 298 286 286 292 295 289
49 51 51 50 48 39 47 51 46 25 23 20 19 11 7 11 6 355 3 2 6 8 7 1 10 22 27 27 347 323 313 307 299 295 294 295 296 302
48 44 44 34 27 25 24 35 34 23 11 10 359 8 10 3 0 7 0 359 3 7 3 358 353 351 21 355 2 357 322 298 295 285 280 288 297 305
6 8 35 18 11 10 3 35 30 20 9 357 346 354 2 6 3 6 6 3 2 354 350 346 351 353 347 2 3 350 336 303 307 306 311 296 287 299
311 333 20 4 20 18 43 33 18 6 0 353 354 356 358 7 8 3 0 356 350 347 339 336 345 346 345 345 350 1 354 339 306 311 315 321 300 295
320 325 358 356 16 24 19 26 8 3 4 3 6 12 15 12 13 14 6 0 350 340 337 340 344 343 349 346 353 356 0 354 348 340 320 312 310 296
315 5 0 29 11 4 12 11 352 352 1 7 15 16 14 17 14 20 20 16 14 7 354 343 332 327 332 336 344 349 346 1 358 348 335 341 350 342
204 329 290 319 357 351 357 0 358 355 0 5 17 17 17 14 10 15 21 21 27 21 14 352 354 333 334 349 352 356 3 356 350 349 340 333 327 327
141 197 330 292 318 337 345 352 355 347 355 4 5 1 10 14 19 18 17 17 19 19 19 29 32 26 356 353 0 358 355 2 359 350 342 344 329 328
188 271 290 11 3 355 352 346 342 348 350 349 356 3 8 9 14 11 8 13 14 16 19 20 23 27 27 26 12 9 11 8 6 4 353 356 352 346
244 301 137 338 329 343 336 326 326 325 337 341 355 1 6 9 8 3 3 8 10 10 10 15 19 21 19 17 21 6 2 5 6 8 0 352 337 330
228 184 349 312 297 305 330 345 314 305 313 322 318 351 1 8 4 5 16 8 359 355 3 1 359 1 4 358 356 10 358 356 355 355 353 355 351 340
176 183 278 254 287 323 335 341 338 336 344 344 328 349 352 3 14 22 16 7 9 4 0 2 2 350 351 355 356 351 351 349 347 344 341 341 352 354
230 264 271 268 306 335 336 325 331 324 329 340 349 347 355 4 359 2 13 19 18 11 6 358 0 356 351 358 355 1 5 5 355 347 341 327 325 325
324 341 330 322 327 333 334 324 323 325 315 325 271 327 335 346 350 356 358 5 10 2 360 357 3 359 3 350 355 0 4 4 2 6 13 359 337 326